sat.trackr.live / text

‹ back to catalog

STARLINK-31335

NORAD 58969 · 2024-031E

PAYLOAD ACTIVE UNKNOWN

§ Identity

Operator
Country
US
Launch date
2024-02-15
Launch site
AFWTR
Launch vehicle
Mass (kg)
RCS (m²)

Purposes: comms

External: N2YO · Heavens-Above · Gunter

§ Orbital elements

Epoch: 2026-05-24T21:45:06.007392Z

Period
93.86 min
Inclination
53.1603°
Eccentricity
0.0001659
Mean motion
15.34275995 rev/d
Perigee alt
461.9 km
Apogee alt
464.2 km
Semi-major
6,841.2 km
B*
2.1672e-3
RAAN
299.7451°
Arg perigee
83.0103°
Mean anomaly
277.1088°
Rev number
12,824

§ Raw data

STARLINK-313351 58969U 24031E   26144.90631953  .00073275  00000+0  21672-2 0  99932 58969  53.1603 299.7451 0001659  83.0103 277.1088 15.34275995128240

JSON: /api/v1/satellites/58969 · /tle

For live sub-satellite position, see the globe view (requires WebGL).

§ Visibility from observer

Set your observer location to see the next 7 days of passes ≥ 10°. The values pass through the URL so the page stays shareable.

No JS? Fill the form by hand. The geolocation button needs JavaScript.